Torna al catalogo

ARIANE 1 DEB

AttivoHEO
NORAD 26922·DEBRIS·🇫🇷 France

Lanciato Mar 5, 1984 da Guiana Space Centre

Loading…

Prossimi Passaggi (prossime 24 ore)

TLE

AggiornatoSource: Space-Track

Epoca: Sep 9, 2026, 09:16 UTC

1 26922U 84023H   26252.38641990 -.00000049  00000-0  00000-0 0  9999
2 26922   8.6985 193.3342 6453428 223.6662  64.4444  2.77110296286347

Traccia ARIANE 1 DEB in tempo reale con AllMySat

Download on the App Store